(218) Bianca
ephemeris date magn radius delta ra dec elong phase
Today11 May 202514.42.976 AU3.966 AU03h18m+08°10'9.8°3.3°
Opposition23 Dec 202513.02.893 AU1.959 AU06h08m+01°05'157.7°7.4°
(218) Bianca - 2025-05-11
astro.vanbuitenen.nl


 
-1 year
-1 month
-1 day
Now
+1 day
+1 month
+1 year

The interactive orbit chart above shows the body's path through the solar system and its position at the given date. Green and blue lines are shown perpendicular to the ecliptic plane: Green if the path is above the ecliptic plane, blue if it is below. (Left-click and drag to rotate the view; Right-click and drag to move the view; Use scroll wheel to zoom in our out.)

The orbital elements of Bianca are:

            e (Eccentricity)                : 0.1159638
            a (Semimajor axis)              : 2.6673797
            i (Inclination)                 : 15.19596
            Ω (Longitude of ascending node) : 170.54892
            ω (Argument of perihelion)      : 62.34838
            M (Mean anomaly)                : 175.00112
            Epoch                           : 2025 May 05

            L (Longitude of perihelion)     : 232.05058
            B (Latitude of perihelion)      : 13.42564
            P (Orbital period in years)     : 4.36            
        

The light curve chart below shows the estimated development of the minor planet's magnitude.


The all-sky chart below shows the path of the minor planet over the same period as the light curve. The current position is marked yellow.





The following chart shows the path of the minor planet in the next few days. The field of view is optimized for (~10x50) binoculars and finderscopes. A more printer-friendly version of the same chart can be found below.




Ephemerides:
Date       Time       RA (2000)    DEC (2000)    delta   radius  elong  phase   PA    magn
2025-05-11 00:00 UT   03 18 22.1   +08 10 24     3.966    2.976    9.8    3.3   170   14.4 
2025-05-11 18:44 UT   03 19 32.4   +08 14 12     3.966    2.976    9.8    3.3   172   14.4 
2025-05-12 00:00 UT   03 19 52.2   +08 15 16     3.966    2.976    9.9    3.3   173   14.4 
2025-05-13 00:00 UT   03 21 22.5   +08 20 04     3.966    2.976   10.0    3.4   177   14.4 
2025-05-14 00:00 UT   03 22 52.7   +08 24 48     3.966    2.976   10.1    3.4   180   14.4 
2025-05-15 00:00 UT   03 24 23.1   +08 29 29     3.965    2.976   10.3    3.5   183   14.4 
2025-05-16 00:00 UT   03 25 53.5   +08 34 06     3.965    2.976   10.5    3.6   186   14.4 
2025-05-17 00:00 UT   03 27 23.9   +08 38 39     3.964    2.977   10.8    3.6   189   14.4 
2025-05-18 00:00 UT   03 28 54.4   +08 43 08     3.963    2.977   11.0    3.7   192   14.4 
2025-05-19 00:00 UT   03 30 24.9   +08 47 34     3.962    2.977   11.3    3.8   195   14.4 
2025-05-20 00:00 UT   03 31 55.5   +08 51 55     3.961    2.977   11.6    3.9   197   14.4 
2025-05-21 00:00 UT   03 33 26.2   +08 56 13     3.959    2.977   11.9    4.0   200   14.4 
2025-05-22 00:00 UT   03 34 56.8   +09 00 26     3.958    2.977   12.3    4.1   202   14.4 
2025-05-23 00:00 UT   03 36 27.5   +09 04 36     3.956    2.977   12.6    4.3   205   14.4 
2025-05-24 00:00 UT   03 37 58.2   +09 08 41     3.955    2.977   13.0    4.4   207   14.4 
2025-05-25 00:00 UT   03 39 29.0   +09 12 43     3.953    2.977   13.4    4.5   209   14.4 
2025-05-26 00:00 UT   03 40 59.8   +09 16 40     3.951    2.977   13.8    4.7   210   14.4 
2025-05-27 00:00 UT   03 42 30.5   +09 20 33     3.948    2.977   14.2    4.8   212   14.5 
2025-05-28 00:00 UT   03 44 01.3   +09 24 22     3.946    2.977   14.6    4.9   214   14.5 
2025-05-29 00:00 UT   03 45 32.1   +09 28 07     3.944    2.977   15.1    5.1   216   14.5 
2025-05-30 00:00 UT   03 47 02.9   +09 31 47     3.941    2.977   15.5    5.2   217   14.5 
2025-05-31 00:00 UT   03 48 33.7   +09 35 23     3.938    2.977   16.0    5.4   219   14.5 
2025-06-01 00:00 UT   03 50 04.5   +09 38 55     3.935    2.977   16.4    5.5   220   14.5 
2025-06-02 00:00 UT   03 51 35.2   +09 42 22     3.932    2.977   16.9    5.7   221   14.5 


    Terminology:
            
    delta:  distance between minor planet and earth in AU
    radius: distance between minor planet and sun in AU
    magn:   magnitude (brightness) estimate    
    ra:     right ascension in hours (24h = 360deg)
    dec:    declination in degrees
    elong:  elongation in degrees (angle sun-earth-minor planet)    
    phase:  phase angle in degrees (angle sun-minor planet-earth)        
    AU:     Astronomical Unit (mean distance between earth and sun: 149597870.7 km
    

Orbital elements provided by the MPC (Minor Planet Center).
Calculations by a modified version of AAPlus, a C# implementation of the AA+ project by PJ Naughter from the algorithms presented in the book "Astronomical Algorithms" by Jean Meeus.
NGC2000 dso catalog and star labels from VizieR as provided by the Strasbourg astronomical Data Center.
Tycho2 catalog from the ESO archive.